Location: Moscow
(38.8570°N, 84.2291°W)
Time: 19:29:11
(UTC+00:00)

O/OREOS (USA 219) - Pass Details

Date: 21 March 2026
Orbit: 577 x 597 km, 72.0° (Epoch: 21 April)

Event Time Altitude Azimuth Distance (km) Brightness Sun altitude
Rises 00:12:31 0° 323° (NW) 2,835 ? -5.4°
Reaches altitude 10° 00:15:11 10° 307° (NW) 1,925 ? -5.9°
Maximum altitude 00:18:24 21° 258° (WSW) 1,343 ? -6.5°
Drops below altitude 10° 00:21:36 10° 209° (SSW) 1,904 ? -7.2°
Sets 00:24:13 0° 194° (SSW) 2,794 ? -7.7°
